Eaton, Ohio, United States (45320)
Lat: 39.74N, Lon: 84.64W
Wx Zone: OHZ060
Local Info
Past Weather Observations for Today

NOTE: This archive is for the closest National Weather Service station to Eaton. Information may differ from the station used for current weather conditions.

Click here for Long-term Archive

Time Weather Temperature Dewpoint Humidity Pressure Winds Precip Visibility
19:53
Overcast
48°F / 9°C 36°F / 2°C 62% 29.74 in
(1007 mb)
NW 10.4 mph
(NW 17 kph)
- 10SM
19:03
Overcast
48°F / 9°C 37°F / 3°C 66% 29.71 in
(1006 mb)
NW 15 mph
(NW 24 kph)
- 10SM
18:53
Overcast
50°F / 10°C 37°F / 3°C 62% 29.71 in
(1006 mb)
NW 15 mph
(NW 24 kph)
- 10SM
17:53
Mostly Cloudy
52°F / 11°C 36°F / 2°C 54% 29.71 in
(1006 mb)
NW 17.3 mph
(NW 28 kph)
- 10SM
16:53
Partly Cloudy
54°F / 12°C 37°F / 3°C 54% 29.68 in
(1005 mb)
NW 19.6 mph
(NW 32 kph)
- 10SM
15:53
Overcast
57°F / 14°C 41°F / 5°C 55% 29.65 in
(1004 mb)
NW 17.3 mph
(NW 28 kph)
- 10SM
14:53
Overcast
55°F / 13°C 45°F / 7°C 67% 29.65 in
(1004 mb)
W 8.1 mph
(W 13 kph)
0.00 in
(0.00 mm)
10SM
14:35
Mostly Cloudy
55°F / 13°C 48°F / 9°C 77% 29.65 in
(1004 mb)
W 6.9 mph
(W 11 kph)
0.00 in
(0.00 mm)
10SM
13:53
Overcast
Light Rain
52°F / 11°C 46°F / 8°C 82% 29.65 in
(1004 mb)
NW 6.9 mph
(NW 11 kph)
0.20 in
(5.08 mm)
6SM
13:36
Overcast
Light Rain
50°F / 10°C 45°F / 7°C 82% 29.65 in
(1004 mb)
W 8.1 mph
(W 13 kph)
0.19 in
(4.83 mm)
3SM
13:23
Overcast
Heavy Rain
52°F / 11°C 46°F / 8°C 82% 29.65 in
(1004 mb)
W 12.7 mph
(W 20 kph)
0.08 in
(2.03 mm)
1 3/4SM
13:21
Overcast
Rain
52°F / 11°C 46°F / 8°C 82% 29.65 in
(1004 mb)
SSW 12.7 mph
(SSW 20 kph)
0.02 in
(0.51 mm)
3SM
12:53
Overcast
52°F / 11°C 46°F / 8°C 82% 29.65 in
(1004 mb)
SSE 12.7 mph
(SSE 20 kph)
0.00 in
(0.00 mm)
10SM
12:23
Overcast
52°F / 11°C 46°F / 8°C 82% 29.65 in
(1004 mb)
SSE 11.5 mph
(SSE 19 kph)
0.00 in
(0.00 mm)
10SM
12:02
Overcast
52°F / 11°C 46°F / 8°C 82% 29.65 in
(1004 mb)
SW 9.2 mph
(SW 15 kph)
0.00 in
(0.00 mm)
10SM
11:53
Overcast
Light Rain
52°F / 11°C 46°F / 8°C 82% 29.68 in
(1005 mb)
SW 13.8 mph
(SW 22 kph)
0.02 in
(0.51 mm)
10SM
10:53
Overcast
Light Rain
52°F / 11°C 45°F / 7°C 77% 29.68 in
(1005 mb)
SW 9.2 mph
(SW 15 kph)
0.01 in
(0.25 mm)
10SM
09:53
Overcast
55°F / 13°C 43°F / 6°C 63% 29.68 in
(1005 mb)
SSW 12.7 mph
(SSW 20 kph)
- 10SM
08:53
Clear
57°F / 14°C 45°F / 7°C 63% 29.68 in
(1005 mb)
SW 13.8 mph
(SW 22 kph)
- 10SM
07:53
Partly Cloudy
52°F / 11°C 46°F / 8°C 82% 29.68 in
(1005 mb)
S 9.2 mph
(S 15 kph)
- 10SM
06:53
Overcast
48°F / 9°C 46°F / 8°C 94% 29.71 in
(1006 mb)
S 6.9 mph
(S 11 kph)
- 9SM
05:53
Overcast
Fog And Mist
46°F / 8°C 45°F / 7°C 93% 29.71 in
(1006 mb)
S 3.5 mph
(S 6 kph)
- 6SM
04:53
Mostly Cloudy
Fog And Mist
45°F / 7°C 43°F / 6°C 93% 29.71 in
(1006 mb)
S 4.6 mph
(S 7 kph)
- 5SM
03:53
Clear
Fog And Mist
45°F / 7°C 43°F / 6°C 93% 29.74 in
(1007 mb)
S 4.6 mph
(S 7 kph)
- 5SM
02:53
Clear
Fog And Mist
45°F / 7°C 43°F / 6°C 93% 29.74 in
(1007 mb)
S 3.5 mph
(S 6 kph)
- 4SM
01:53
Clear
46°F / 8°C 43°F / 6°C 87% 29.77 in
(1008 mb)
S 3.5 mph
(S 6 kph)
- 8SM
00:53
Clear
48°F / 9°C 43°F / 6°C 82% 29.8 in
(1009 mb)
Calm - 10SM
Time Weather Temperature Dewpoint Humidity Pressure Winds Precip Visibility


Weather for websites

WeatherForYou.com, LLC is not responsible for any damages or problems caused by this service. Current weather conditions are obtained from the closest station including government and personal stations which may have varying degrees of accuracy. Weather forecasts are derived from the NOAA NDFD. Like all things, this site belongs to Jesus Christ... He just trusts us to maintain it. If you have any questions or comments email webmaster@weatherforyou.com

Copyright © 2016, WeatherForYou.com LLC. All rights reserved.